100LL.CA
Aviation Fuel Pricing for Canadians
Please upgrade your browser - Tested with IE9, FireFox, Chrome, Safari

Fuel Airports Other Help
Prices Economy Info List METAR/TAF Kneeboard Help

Reference Airport: Revelstoke, BC
N 50 57 44  W 118 11 04
Provinces to show:

CYRV Revelstoke, BC
OTHER SITES
FlightAware FltPlan Google Maps SkyVector
WEATHER
METARCYRV 160100Z AUTO 00000KT 9SM BKN240 M00/M01 A3008 RMK SLP206
REF N 50 57 44  W 118 11 04    1.7SSE    16E (2014)
UTC-8(7)    Elev 1457    A5005 LO2 RCAP
OPR Columbia-Shuswap Regional District 250-837-7007
Reg
PFA-1,6 C-2,3,4,5
FLT PLN NOTAM FILE CYKA
FIC Kamloops 866-WXBRIEF (Toll free within Canada) or 866-541-4101 (Toll free within Canada & USA)
WXMETAR AUTO H24 WxCam
SERVICES
FUEL100LL, JA (FSII avbl) (Full/Self-serve, Visa Mastercard, Amex) 250-837-7007
PRICES100LL public: 1.630; JETA: 1.280; current as of 2018-05-06.
OILAll
S1,4,5
RWY DATARwy 12(120)/30(300) 5155x75 asphalt Thld 30 displ 654. R/L
RCROpr Ltd win maint
COMM
RCOPacific rdo 122.375 (FISE) 126.7 (bcst)
ATFtfc 122.8 5NM 4500 ASL
NAV
PRORgt hand circuits Rwy 12 (CAR 602.96).
CAUTIONMigratory birds in vic of aprt fr aprx Aug-Nov.
Effective 0901Z 13 September 2018 to 0901Z 08 November 2018


Please Send Updates!

Desktop Version ]  [ Mobile Version ]  [ Disclaimer ]